Location: Chuathbaluk
(61.5726°N, 159.2454°W)
Time: 23:42:34
(UTC+00:00)

Transit 2A - Pass Details

Date: 28 November 2020
Orbit: 598 x 960 km, 66.7° (Epoch: 20 January)

Event Time Altitude Azimuth Distance (km) Brightness Sun altitude
Rises 06:01:41 0° 232° (SW) 3,605 10.0 -30.1°
Reaches altitude 10° 06:04:18 10° 233° (SW) 2,635 9.2 -30.5°
Enters shadow 06:09:20 61° 232° (SW) 1,010 6.6 -31.0°
Maximum altitude 06:10:29 89° 142° (SE) 890 - -31.2°
Drops below altitude 10° 06:16:10 10° 56° (NE) 2,433 - -31.8°
Sets 06:18:30 0° 56° (ENE) 3,312 - -32.1°
